Regional Weather Roundup
Issued by NWS

Home | Current Version | Previous Version | Text Only | Print | Product List | Glossary Off
Versions: 1 2 3 4 5 6 7 8 9 10 11 12 13 14 15 16 17 18 19 20 21 22 23 24 25 26 27 28 29 30 31 32 33 34 35 36 37 38 39 40 41 42 43 44 45 46 47 48 49 50

000
ASUS43 KDMX 181406
RWRIA

WEATHER ROUNDUP FOR IOWA
NATIONAL WEATHER SERVICE DES MOINES IA
800 AM CST WED JAN 18 2017

NOTE: "FAIR" INDICATES FEW OR NO CLOUDS BELOW 12,000 FEET WITH NO
SIGNIFICANT WEATHER AND/OR OBSTRUCTIONS TO VISIBILITY.

* - THESE STATIONS ARE NOT NWS STATIONS...THUS NOT UNDER NWS
QUALITY CONTROL.  THEY ALSO DO NOT REPORT WEATHER SUCH
AS PRECIPITATION OR FOG.

IAZ001>003-012>014-020>022-031>034-043>046-181500-
   NORTHWEST IOWA

CITY           SKY/WX    TMP DP  RH WIND       PRES   REMARKS
CARROLL *      CLOUDY    30  30 100 CALM      30.02R
CHEROKEE *     CLOUDY    28  28  99 S5        29.96F WCI  23
DENISON *      CLOUDY    30  27  86 S6        29.99S WCI  24
LE MARS *      CLOUDY    28  27  93 S10       29.95F WCI  19
ORANGE CITY *  CLOUDY    27  27 100 S7        29.92F WCI  19
SHELDON *      CLOUDY    28  28 100 S9        29.91F WCI  20
SIOUX CITY     CLOUDY    24  22  91 SE9       29.97S WCI  14
SPENCER        CLOUDY    28  25  88 S9        29.94F WCI  19
STORM LAKE *   CLOUDY    28  27  93 S9        29.97F WCI  20
$$

IAZ055>058-069>071-079>083-090>094-181500-
   SOUTHWEST IOWA

CITY           SKY/WX    TMP DP  RH WIND       PRES   REMARKS
ATLANTIC *     CLOUDY    27  27 100 S7        30.06S WCI  19
AUDUBON *      CLOUDY    27  25  93 CALM      30.03F
CLARINDA *     CLOUDY    27  28 100 S7        30.11S WCI  19
COUNCIL BLFS * CLOUDY    30  30 100 S10       30.03S WCI  21
CRESTON *      CLOUDY    27  27 100 S8        30.09S WCI  18
HARLAN  *      CLOUDY    27  27 100 S10       30.07S WCI  17
LAMONI         FOG       28  27  96 S10       30.10S VSB 1/4 WCI  19
RED OAK *      CLOUDY    25  25 100 S3        30.08S
SHENANDOAH *   CLOUDY    28  27  93 CALM      30.09S
$$

IAZ047>049-059>061-072>074-084-181500-
   CENTRAL IOWA

CITY           SKY/WX    TMP DP  RH WIND       PRES   REMARKS
AMES           FOG       30  30 100 S9        30.07S VSB 3/4 WCI  22
ANKENY *       FOG       30  30 100 S6        30.09S VSB 1/4 WCI  24
BOONE *        CLOUDY    28  30 100 S8        30.03F FOG     WCI  20
CHARITON *     FOG       30  30 100 S10       30.10F VSB<1/4 WCI  21
DES MOINES     FOG       31  30  96 S7        30.08S VSB 1/8 WCI  24
GRINNELL*      FOG       31  30  98 S10       30.09F VSB 1/2 WCI  22
KNOXVILLE *    FOG       32  30  93 S9        30.09R VSB<1/4 WCI  24
MARSHALLTOWN   CLOUDY    31  31 100 S12       30.06F FOG     WCI  22
NEWTON *       FOG       30  30 100 S7        30.08F VSB<1/4 WCI  23
PELLA *        FOG       31  31  97 SW7       30.12S VSB 1/2 WCI  25
PERRY *          N/A     30  30 100 S8        30.05S FOG     WCI  22
$$

IAZ004>006-015-016-023>025-035-036-181500-
   NORTH CENTRAL IOWA

CITY           SKY/WX    TMP DP  RH WIND       PRES   REMARKS
ALGONA *       CLOUDY    30  30 100 S17       29.97S FOG     WCI  18
CLARION *      FOG       30  30 100 S16       30.01F VSB 3/4 WCI  19
ESTHERVILLE    CLOUDY    25  24  96 S15       29.93S FOG     WCI  13
FORT DODGE *   CLOUDY    28  27  93 MISG      30.02F
MASON CITY     FOG       28  27  96 S15G23    30.01S VSB 1/4 WCI  16
FOREST CITY *  FOG       30  30 100 S13       29.98S VSB 1/4 WCI  20
WEBSTER CITY * FOG       30  30 100 S12       30.01F VSB 1/4 WCI  21
IOWA FALLS *   FOG       31  30  96 S9        30.06S VSB<1/4 WCI  23
$$

IAZ007>011-017>019-026>030-037>042-050>054-066-181500-
   NORTHEAST IOWA

CITY           SKY/WX    TMP DP  RH WIND       PRES   REMARKS
CEDAR RAPIDS   CLOUDY    28  27  96 S6        30.10S FOG     WCI  22
CHARLES CITY * FOG       28  28 100 S12       30.03S VSB 1/2 WCI  18
CLINTON *      CLOUDY    32  31  96 W6        30.14R WCI  26
DECORAH *      CLOUDY    28  28 100 S7        30.02F FOG     WCI  21
DUBUQUE        CLOUDY    29  29 100 SW9       30.10R WCI  20
MONTICELLO *   CLOUDY    30  30 100 SW5       30.10F WCI  25
OELWEIN *      CLOUDY    28  28 100 S8        30.06F FOG     WCI  20
WATERLOO       CLOUDY    29  27  92 S9        30.07S FOG     WCI  20
$$

IAZ064-065-067-068-078-181500-
   EAST CENTRAL IOWA

CITY           SKY/WX    TMP DP  RH WIND       PRES   REMARKS
DAVENPORT      CLOUDY    31  29  92 W5        30.13S WCI  26
IOWA CITY      CLOUDY    31  29  92 S6        30.15R FOG     WCI  25
MUSCATINE *    CLOUDY    30  28  93 SW6       30.16R WCI  24
QUAD CITIES    CLOUDY    33  29  85 SW3       30.13S
$$

IAZ062-063-075>077-085>089-095>099-181500-
   SOUTHEAST IOWA

CITY           SKY/WX    TMP DP  RH WIND       PRES   REMARKS
BURLINGTON     CLOUDY    32  31  96 SW9       30.16R WCI  24
FAIRFIELD *    CLOUDY    32  30  93 SW8       30.14R FOG     WCI  25
FORT MADISON * CLOUDY    32  30  93 SW6       30.17R WCI  26
KEOKUK *       CLOUDY    34  32  93 SW5       30.16S FOG     WCI  30
OSKALOOSA *    FOG       31  31  99 SW8       30.13R VSB 1   WCI  24
OTTUMWA        CLOUDY    32  30  92 SW9       30.12R FOG     WCI  24
WASHINGTON *   CLOUDY    30  30 100 SW8       30.15R FOG     WCI  23
$$

ABBREVIATIONS USED IN REMARKS
   TC - TEMPERATURES IN CELSIUS
  WCI - WIND CHILL INDEX
   HX - HEAT INDEX
  VSB - VISIBILITY
$$




USA.gov is the U.S. government's official web portal to all federal, state and local government web resources and services.